Hourly Data Report for September 09, 2020

OTTAWA INTL A
ONTARIO
Current Station Operator: NAVCAN

45°19'00.000" N
75°40'00.000" W
114.90 m
6106001
71628
YOW

Download Data

Hourly Data (September 2020)
Hourly Data Report for September 9, 2020
TIME Temp Definition
°C
Dew Point Definition
°C
Rel Hum Definition
%
Wind Dir Definition
10's deg

Wind Spd Definition
km/h
Visibility Definition
km
Stn Press Definition
kPa
Hmdx Definition


Wind Chill Definition


Weather Definition


00:00 12.7 11.1 90 6 9 24.1 101.00     LegendNANA
01:00 12.5 11.0 91 5 12 24.1 100.98     Cloudy
02:00 12.5 11.2 92 3 12 24.1 100.98     LegendNANA
03:00 12.6 11.2 91 4 13 24.1 101.00     LegendNANA
04:00 12.6 11.4 93 2 16 12.9 101.05     Rain Showers
05:00 12.5 11.7 95 3 15 24.1 101.08     LegendNANA
06:00 12.6 11.8 95 2 8 24.1 101.18     LegendNANA
07:00 12.9 12.0 94 35 14 24.1 101.24     Rain Showers
08:00 13.4 12.2 92 1 16 24.1 101.23     LegendNANA
09:00 13.4 12.0 91 35 17 24.1 101.34     LegendNANA
10:00 14.0 12.3 89 2 13 24.1 101.35     Cloudy
11:00 15.0 12.4 84 6 16 24.1 101.30     LegendNANA
12:00 15.4 12.8 84 3 13 24.1 101.33     LegendNANA
13:00 15.7 13.4 86 4 11 24.1 101.31     Cloudy
14:00 16.0 13.5 85 2 13 24.1 101.28     LegendNANA
15:00 15.7 13.3 86 2 14 24.1 101.26     LegendNANA
16:00 14.2 12.9 92 4 14 16.1 101.29     Rain Showers
17:00 13.8 13.2 96 3 14 24.1 101.30     Rain Showers
18:00 13.7 13.2 96 4 14 16.1 101.28     Rain
19:00 13.5 13.0 97 5 14 24.1 101.30     Cloudy
20:00 13.4 12.9 97 6 11 24.1 101.35     LegendNANA
21:00 12.3 11.5 94 6 19 24.1 101.30     LegendNANA
22:00 11.6 10.5 93 6 14 24.1 101.28     Cloudy
23:00 11.5 10.6 94 6 14 24.1 101.22     LegendNANA

Notes on Data Quality.

Legend

  • E = Estimated
  • M = Missing
  • NA = Not Available*
  • [empty] = Indicates an unobserved value
Date modified: